Miscellaneous Local Product
Issued by NWS Hastings, NE

Home | Current Version | Previous Version | Text Only | Print | Product List | Glossary On
Versions: 1 2 3 4 5 6 7 8 9 10 11 12 13 14 15 16 17 18 19 20 21 22 23 24 25 26 27 28 29 30 31 32 33 34 35 36 37 38 39 40 41 42 43 44 45 46 47 48 49 50
917
AXUS43 KGID 250702
MISGRI

GID CWA HOURLY WEATHER ROUNDUP
NATIONAL WEATHER SERVICE HASTINGS NE
200 AM CDT FRI MAY 25 2018

NOTE: "FAIR" INDICATES FEW OR NO CLOUDS BELOW 12,000 FEET WITH NO
SIGNIFICANT WEATHER AND/OR OBSTRUCTIONS TO VISIBILITY.

...SOUTH CENTRAL NEBRASKA...

CITY           SKY/WX    TMP DP  RH WIND       PRES   REMARKS
GRAND ISLAND   CLOUDY    71  62  73 S9        29.88F
KEARNEY        CLOUDY    72  59  63 W10       29.90F
HASTINGS       CLOUDY    69  65  86 SE3       29.89F
ORD            MOCLDY    66  60  81 CALM      29.88S
YORK           LGT RAIN  68  68 100 S17       29.88F
AURORA         CLOUDY    69  64  84 SE6       29.89F
LEXINGTON      CLEAR     70  53  54 SW12G20   29.93F
HOLDREGE       PTCLDY    68  51  55 SW8       29.92F
HEBRON         CLOUDY    71  65  83 S6        29.89F

...NEBRASKA PANHANDLE...

CITY           SKY/WX    TMP DP  RH WIND       PRES   REMARKS
CHADRON        CLEAR     57  54  89 CALM      29.95F
ALLIANCE       CLEAR     53  50  89 SE6       29.98F
SCOTTSBLUFF    CLEAR     56  52  86 NE6       30.00F
SIDNEY         CLEAR     52  49  89 SW8       30.04S

...WESTERN AND NORTH CENTRAL NEBRASKA...

CITY           SKY/WX    TMP DP  RH WIND       PRES   REMARKS
VALENTINE      CLEAR     61  59  93 CALM      29.91S
AINSWORTH      CLEAR     62  59  92 SW6       29.91S
ONEILL         MOCLDY    73  62  69 SW5       29.88S
BROKEN BOW     CLEAR     62  60  93 N3        29.90F
IMPERIAL       CLEAR     62  58  86 SW3       29.98F
NORTH PLATTE   CLEAR     58  56  93 N3        29.95F
MCCOOK         CLEAR     63  52  67 SW9       29.96F

...EASTERN NEBRASKA...

CITY           SKY/WX    TMP DP  RH WIND       PRES   REMARKS
NORFOLK        MOCLDY    72  61  68 S10       29.87S
SO SIOUX CITY  PTCLDY    74  63  68 S9        29.86F
TEKAMAH        PTCLDY    70  63  78 S13       29.89F
COLUMBUS       MOCLDY    72  63  73 S9        29.89F
ALBION         CLOUDY    69  62  78 CALM      29.89S
OMAHA EPPLEY   CLOUDY    72  64  76 S8        29.90F
OFFUTT AFB     PTCLDY    69  64  85 S9        29.91F
MILLARD        CLEAR     72  64  75 S5        29.92S
LINCOLN        CLOUDY    70  62  76 S10       29.90F
NEBRASKA CITY  PTCLDY    67  65  93 S7        29.92F
BEATRICE       CLOUDY    69  64  84 S7        29.91F
FALLS CITY     MOCLDY    68  63  84 S8        29.92F

...NORTHERN KANSAS...

CITY           SKY/WX    TMP DP  RH WIND       PRES   REMARKS
GOODLAND       PTCLDY    58  49  72 MISG      30.01F
HILL CITY      CLOUDY    59  56  89 CALM      29.96F
NORTON         SUNNY     70  48  46 SE10      29.94F
PHILLIPSBURG   CLEAR     66  55  68 E8        29.94S
SMITH CENTER   PTCLDY    68  54  60 CALM      29.94S
HAYS           PTCLDY    61  58  90 E8        29.97S
RUSSELL        CLOUDY    64  61  90 SE12      29.96R THUNDER
CONCORDIA      LGT RAIN  70  57  63 W18G29    29.87F
SALINA         LGT RAIN  68  62  81 S17G24    29.99R
TOPEKA         MOCLDY    68  67  96 SE5       29.94F



USA.gov is the U.S. government's official web portal to all federal, state and local government web resources and services.